Simultaneous Nadir Overpasses (SNOs) Predictions

Prediction of SNOs between METOP-A and NOAA-19 Satellite Orbit:

Table of predicted SNOs for the next 14.0 days since TLE Epoch: 4/24/2020
Index Date (METOP-A) Time (METOP-A) Lat,Lon (METOP-A) SZA (METOP-A ) Date (NOAA-19) Time (NOAA-19) Lat,Lon (NOAA-19) SZA (NOAA-19 ) Distance(km) Time Diff (sec)
1 04/30/2020 07:58:34 -80.47,-105.93 114.22 04/30/2020 07:57:27 -80.45,-105.96 114.25 1.70 67
2 04/30/2020 08:49:15 80.45, 61.15 65.74 04/30/2020 08:48:32 80.46, 61.26 65.74 2.32 43
3 04/30/2020 09:39:56 -80.46,-131.41 114.26 04/30/2020 09:39:28 -80.46,-131.58 114.27 3.28 28
4 04/30/2020 10:30:36 80.46, 35.99 65.74 04/30/2020 10:30:32 80.44, 35.98 65.72 2.16 4
5 04/30/2020 11:21:18 -80.45,-156.88 114.30 04/30/2020 11:21:28 -80.45,-156.87 114.29 0.41 10
6 04/30/2020 12:11:58 80.45, 10.52 65.70 04/30/2020 12:12:33 80.45, 10.36 65.70 2.94 35
7 04/30/2020 13:02:38 -80.46, 177.97 114.30 04/30/2020 13:03:27 -80.44, 177.85 114.32 3.39 49




NCC Satellite Simultaneous Nadir Overpasses (SNOs) Prediction Service
